Torna al catalogo

STARLINK-5679

AttivoComunicazioniVLEO
NORAD 55467·PAYLOAD·🇺🇸 United States

Lanciato Feb 2, 2023 da Cape Canaveral Space Force Station

Loading…

Prossimi Passaggi (prossime 24 ore)

TLE

AggiornatoSource: CelesTrak SupGP

Epoca: Sep 14, 2026, 22:02 UTC

1 55467C 23015U   26257.91854167 -.00055965  00000+0 -20269-2 0  2570
2 55467  43.0018 339.7891 0001747 266.7883 148.9895 15.27608128    19

Traccia STARLINK-5679 in tempo reale con AllMySat

Download on the App Store